Torna al catalogo

STARLINK-34841

AttivoComunicazioniVLEO
NORAD 65208·PAYLOAD·🇺🇸 United States

Lanciato Aug 14, 2025 da Cape Canaveral Space Force Station

Loading…

Prossimi Passaggi (prossime 24 ore)

TLE

AggiornatoSource: CelesTrak SupGP

Epoca: Sep 15, 2026, 03:54 UTC

1 65208C 25176L   26258.16298611  .00064485  00000+0  19060-2 0  2581
2 65208  53.1592 348.4831 0001409 100.7769  69.8130 15.34345385    12

Traccia STARLINK-34841 in tempo reale con AllMySat

Download on the App Store